Home   Weather   Waidhofen an der Thaya   Past weeks

Flag for Austria Past Weather in Waidhofen an der Thaya, Lower Austria, Austria — Yesterday and Last 2 Weeks

Now
56 °F

Partly sunny.


Feels Like: 56 °F
Forecast: 55 / 70 °F
Wind: 2 mph from West

Location: Retz

Current Time: Jul 26, 2017 at 8:59:11 am

Latest Report: Jul 26, 2017 at 8:00 am


Visibility: 16 mi

Pressure: 29.63 "Hg (27.90 "Hg at 506m altitude)

Humidity: 83%

Dew Point: 51 °F

Location of Waidhofen an der ThayaLocation

Past Weather in Waidhofen an der Thaya — Graph

°F

Waidhofen an der Thaya Temperature Yesterday

Maximum temperature yesterday: 70 °F (at 6:00 pm)
Minimum temperature yesterday: 57 °F (at 6:00 am)
Average temperature yesterday: 62 °F

High & Low Weather Summary for the Past Weeks

 TemperatureHumidityPressure
High89 °F (Jul 20, 3:00 pm)99% (Jul 21, 3:00 am)30.24 "Hg (Jul 21, 3:00 am)
Low52 °F (Jul 26, 6:00 am)27% (Jul 16, 5:00 pm)29.62 "Hg (Jul 25, 6:00 pm)
Average69 °F61%29.94 "Hg
* Reported Jul 11 7:00 am — Jul 26 7:00 am, Waidhofen an der Thaya. Weather by CustomWeather, © 2017

Note: Actual official high and low records may vary slightly from our data, if they occured in-between our weather recording intervals... More about our weather records

Advertising

Waidhofen an der Thaya Weather History for the Previous 24 Hours

Scroll right to see more
 ConditionsComfort  
Time TempWeatherWind HumidityBarometerVisibility
7:00 am
Wed, Jul 26
54 °FPartly sunny.2 mph88%29.64 "Hg14 mi
6:00 am52 °FCool.2 mph88%29.65 "HgN/A
5:00 am53 °FCool.2 mph85%29.65 "HgN/A
4:00 am53 °FCool.2 mph84%29.65 "HgN/A
3:00 am55 °FCool.5 mph82%29.66 "HgN/A
2:00 am56 °FCool.2 mph80%29.67 "HgN/A
1:00 am58 °FCool.5 mph75%29.67 "HgN/A
12:00 am59 °FCool.6 mph70%29.67 "HgN/A
11:00 pm
Tue, Jul 25
58 °FCool.6 mph70%29.68 "HgN/A
10:00 pm60 °FCool.7 mph65%29.66 "HgN/A
9:00 pm62 °FMild.7 mph63%29.65 "HgN/A
8:00 pm64 °FPassing clouds.8 mph57%29.65 "Hg22 mi
7:00 pm68 °FMild.8 mph49%29.62 "HgN/A
6:00 pm70 °FMild.7 mph43%29.62 "HgN/A
5:00 pm67 °FMild.8 mph49%29.64 "HgN/A
4:00 pm68 °FMild.9 mph49%29.65 "HgN/A
3:00 pm69 °FMild.8 mph51%29.65 "HgN/A
2:00 pm69 °FPartly sunny.6 mph51%29.66 "Hg22 mi
1:00 pm67 °FMild.7 mph48%29.65 "HgN/A
12:00 pm65 °FMild.10 mph52%29.67 "HgN/A
11:00 am65 °FMild.9 mph56%29.66 "HgN/A
10:00 am62 °FMild.8 mph61%29.67 "HgN/A
9:00 am60 °FCool.9 mph70%29.67 "HgN/A
8:00 am58 °FPassing clouds.6 mph75%29.69 "Hg12 mi
Weather by CustomWeather, © 2017

See weather overviewHow to use our weather pages